QFA439 YSSY-RJTT

Flight info

Callsign QFA439
Flight time N/A
Altitude 32000
Route RIC H530 KABIX/N0489F310 DCT UPTOD DCT 2752S14804E/N0492F320 2318S14829E DCT NONIR/N0492F340 DCT APISO DCT PY B586 PIKOK/N0486F360 DCT 02N145E 05N144E 10N143E 15N142E 20N141E/N0480F370 25N141E/N0476F380 UKATA B586 CADDY/N0476F370 T871 TOPIT Y875 AROSA
Aircraft A333/H-SDE3GHIJ2J3J5M1RVWXY/LB2D1

Departure

Time N/A
Airport Sydney Kingsford Smith International Airport (YSSY)

Arrival

Time 2026-05-05 19:10
Airport Tokyo Haneda International Airport (RJTT)
Time Latitude Longitude Altitude Speed Heading
2026-05-05 18:49 35.33064 140.37502 17570 ft 342 kts 353°
2026-05-05 18:49 35.35431 140.37209 16823 ft 340 kts 352°
2026-05-05 18:49 35.37770 140.36899 16111 ft 337 kts 352°
2026-05-05 18:50 35.40085 140.36580 15423 ft 334 kts 352°
2026-05-05 18:50 35.42386 140.36251 14742 ft 331 kts 352°
2026-05-05 18:50 35.44664 140.35913 14079 ft 329 kts 352°
2026-05-05 18:50 35.46927 140.35567 13363 ft 326 kts 352°
2026-05-05 18:51 35.49130 140.35230 12703 ft 321 kts 352°
2026-05-05 18:51 35.51312 140.34901 12086 ft 317 kts 352°
2026-05-05 18:51 35.53511 140.34574 11536 ft 311 kts 352°
2026-05-05 18:51 35.55657 140.34261 11281 ft 311 kts 352°
2026-05-05 18:52 35.57805 140.33950 11242 ft 311 kts 352°
2026-05-05 18:52 35.59928 140.33643 11242 ft 312 kts 352°
2026-05-05 18:52 35.62093 140.33330 11240 ft 310 kts 352°
2026-05-05 18:52 35.64234 140.33020 11036 ft 311 kts 352°
2026-05-05 18:53 35.66388 140.32711 10667 ft 310 kts 352°
2026-05-05 18:53 35.68504 140.32409 10390 ft 306 kts 352°
2026-05-05 18:53 35.70582 140.32116 10093 ft 303 kts 352°
2026-05-05 18:53 35.72662 140.31830 9748 ft 300 kts 354°
2026-05-05 18:54 35.74695 140.32048 9352 ft 300 kts 17°
2026-05-05 18:54 35.76500 140.33294 8964 ft 299 kts 43°
2026-05-05 18:54 35.77702 140.35341 8587 ft 295 kts 69°
2026-05-05 18:54 35.78076 140.37780 8223 ft 289 kts 95°
2026-05-05 18:55 35.77568 140.40121 7863 ft 282 kts 121°
2026-05-05 18:55 35.76302 140.41899 7515 ft 275 kts 147°
2026-05-05 18:55 35.74568 140.42813 7171 ft 270 kts 167°
2026-05-05 18:55 35.72733 140.43249 7014 ft 268 kts 172°
2026-05-05 18:56 35.70875 140.43383 6992 ft 268 kts 184°
2026-05-05 18:56 35.69087 140.42885 6991 ft 268 kts 203°
2026-05-05 18:56 35.67526 140.41647 6996 ft 269 kts 219°
2026-05-05 18:56 35.66136 140.40095 6994 ft 270 kts 223°
2026-05-05 18:57 35.64787 140.38482 6993 ft 271 kts 223°
2026-05-05 18:57 35.63430 140.36870 6883 ft 271 kts 220°
2026-05-05 18:57 35.61924 140.35489 6715 ft 269 kts 213°
2026-05-05 18:57 35.60373 140.34209 6590 ft 269 kts 212°
2026-05-05 18:58 35.58808 140.32959 6400 ft 268 kts 212°
2026-05-05 18:58 35.57246 140.31730 6148 ft 266 kts 212°
2026-05-05 18:58 35.55693 140.30519 5915 ft 263 kts 212°
2026-05-05 18:58 35.54158 140.29325 5656 ft 260 kts 212°
2026-05-05 18:59 35.52631 140.28142 5399 ft 258 kts 212°
2026-05-05 18:59 35.51123 140.26975 5159 ft 255 kts 212°
2026-05-05 18:59 35.49627 140.25819 4923 ft 253 kts 212°
2026-05-05 18:59 35.48145 140.24675 4792 ft 251 kts 212°
2026-05-05 19:00 35.46667 140.23534 4648 ft 251 kts 212°
2026-05-05 19:00 35.45190 140.22394 4532 ft 250 kts 211°
2026-05-05 19:00 35.43718 140.21259 4391 ft 250 kts 211°
2026-05-05 19:00 35.42247 140.20124 4272 ft 250 kts 211°
2026-05-05 19:01 35.40778 140.18993 4153 ft 249 kts 211°
2026-05-05 19:01 35.39313 140.17865 4030 ft 248 kts 212°
2026-05-05 19:01 35.37857 140.16745 4008 ft 247 kts 211°
2026-05-05 19:01 35.36400 140.15623 4002 ft 247 kts 211°
2026-05-05 19:02 35.34943 140.14502 4004 ft 247 kts 211°
2026-05-05 19:02 35.33489 140.13384 4001 ft 247 kts 211°
2026-05-05 19:02 35.32036 140.12268 4002 ft 247 kts 211°
2026-05-05 19:02 35.30585 140.11143 3998 ft 247 kts 213°
2026-05-05 19:03 35.29318 140.09735 3999 ft 248 kts 230°
2026-05-05 19:03 35.28365 140.07964 4007 ft 250 kts 237°
2026-05-05 19:03 35.27506 140.06112 4003 ft 251 kts 240°
2026-05-05 19:03 35.26958 140.04082 3999 ft 255 kts 260°
2026-05-05 19:04 35.27157 140.01929 3998 ft 258 kts 286°
2026-05-05 19:04 35.27938 140.00005 4001 ft 247 kts 297°
2026-05-05 19:04 35.29008 139.98363 4004 ft 248 kts 313°
2026-05-05 19:04 35.30402 139.97096 4007 ft 252 kts 326°
2026-05-05 19:05 35.31934 139.96036 4003 ft 253 kts 327°
2026-05-05 19:05 35.33466 139.94980 4003 ft 253 kts 327°
2026-05-05 19:05 35.34975 139.93933 3999 ft 253 kts 326°
2026-05-05 19:05 35.36503 139.92864 3991 ft 250 kts 326°
2026-05-05 19:06 35.38009 139.91796 3808 ft 245 kts 325°
2026-05-05 19:06 35.39485 139.90744 3477 ft 246 kts 326°
2026-05-05 19:06 35.40942 139.89719 3097 ft 243 kts 326°
2026-05-05 19:06 35.42400 139.88693 2710 ft 232 kts 326°
2026-05-05 19:07 35.43744 139.87744 2400 ft 220 kts 325°
2026-05-05 19:07 35.45031 139.86834 2126 ft 207 kts 326°
2026-05-05 19:07 35.46252 139.85971 1838 ft 197 kts 326°
2026-05-05 19:07 35.47412 139.85151 1570 ft 187 kts 326°
2026-05-05 19:08 35.48495 139.84386 1341 ft 172 kts 326°
2026-05-05 19:08 35.49497 139.83677 1093 ft 160 kts 327°
2026-05-05 19:08 35.50422 139.83035 919 ft 148 kts 328°
2026-05-05 19:08 35.51320 139.82434 727 ft 145 kts 328°
2026-05-05 19:09 35.52189 139.81811 533 ft 144 kts 328°
2026-05-05 19:09 35.53051 139.81197 361 ft 143 kts 327°
2026-05-05 19:09 35.53903 139.80573 139 ft 141 kts 327°
2026-05-05 19:09 35.54711 139.79982 35 ft 125 kts 330°
2026-05-05 19:10 35.55294 139.79572 33 ft 68 kts 331°
2026-05-05 19:10 35.55634 139.79325 33 ft 42 kts 324°
2026-05-05 19:10 35.55768 139.79149 32 ft 24 kts 302°
2026-05-05 19:10 35.55797 139.79074 33 ft 2 kts 264°
2026-05-05 19:11 35.55790 139.79053 33 ft 2 kts 244°
2026-05-05 19:11 35.55786 139.79045 33 ft 0 kts 243°
2026-05-05 19:11 35.55786 139.79044 33 ft 0 kts 243°
2026-05-05 19:11 35.55779 139.79014 33 ft 7 kts 265°
2026-05-05 19:12 35.55812 139.78955 33 ft 11 kts 324°
2026-05-05 19:12 35.55885 139.78900 33 ft 13 kts 329°
2026-05-05 19:12 35.55967 139.78840 33 ft 15 kts 329°
2026-05-05 19:12 35.56061 139.78775 33 ft 17 kts 330°
2026-05-05 19:13 35.56170 139.78698 33 ft 19 kts 329°
2026-05-05 19:13 35.56287 139.78614 34 ft 17 kts 330°
2026-05-05 19:13 35.56363 139.78560 34 ft 10 kts 330°
2026-05-05 19:13 35.56427 139.78515 34 ft 13 kts 330°
2026-05-05 19:14 35.56461 139.78417 34 ft 14 kts 252°
2026-05-05 19:14 35.56411 139.78308 34 ft 15 kts 240°
2026-05-05 19:14 35.56356 139.78192 34 ft 16 kts 238°
2026-05-05 19:14 35.56292 139.78061 34 ft 19 kts 239°
2026-05-05 19:15 35.56226 139.77922 34 ft 19 kts 239°
2026-05-05 19:15 35.56157 139.77776 34 ft 20 kts 240°
2026-05-05 19:15 35.56082 139.77619 34 ft 23 kts 239°
2026-05-05 19:15 35.56002 139.77449 34 ft 23 kts 240°
2026-05-05 19:16 35.55919 139.77282 34 ft 21 kts 232°
2026-05-05 19:16 35.55809 139.77175 33 ft 20 kts 214°
2026-05-05 19:16 35.55685 139.77070 30 ft 22 kts 216°
2026-05-05 19:16 35.55571 139.76970 33 ft 17 kts 215°
2026-05-05 19:17 35.55469 139.76910 33 ft 16 kts 174°
2026-05-05 19:17 35.55372 139.76970 34 ft 16 kts 149°
2026-05-05 19:17 35.55275 139.77039 34 ft 17 kts 150°
2026-05-05 19:17 35.55170 139.77112 34 ft 19 kts 150°
2026-05-05 19:18 35.55058 139.77193 33 ft 19 kts 149°
2026-05-05 19:18 35.54948 139.77271 34 ft 17 kts 149°
2026-05-05 19:18 35.54847 139.77308 34 ft 14 kts 197°
2026-05-05 19:18 35.54795 139.77229 34 ft 11 kts 239°
2026-05-05 19:19 35.54759 139.77153 34 ft 9 kts 239°
2026-05-05 19:19 35.54743 139.77117 34 ft 7 kts 245°
2026-05-05 19:19 35.54744 139.77063 34 ft 8 kts 288°
2026-05-05 19:19 35.54733 139.76993 34 ft 9 kts 240°
2026-05-05 19:20 35.54707 139.76937 34 ft 4 kts 239°
2026-05-05 19:20 35.54704 139.76932 34 ft 0 kts 239°